Location: Berg
(47.2344°N, 9.5296°E)
Time: 22:46:53
(UTC+00:00)

AAUSAT CUBESAT 2 - Pass Details

Date: 04 December 2021
Orbit: 571 x 586 km, 97.5° (Epoch: 19 January)

Event Time Altitude Azimuth Distance (km) Brightness Sun altitude
Rises 05:26:07 0° 3° (N) 2,798 ? -13.9°
Reaches altitude 10° 05:28:28 10° 353° (N) 1,896 ? -13.5°
Maximum altitude 05:32:02 29° 292° (WNW) 1,068 ? -12.9°
Drops below altitude 10° 05:35:35 10° 232° (SW) 1,891 ? -12.3°
Sets 05:37:56 0° 221° (SW) 2,788 ? -12.0°
